Tracking 27380 objects as of 5-Jun-2023
HD Live streaming from Space Station
objects crossing your sky now

DELTA 1 DEB

Track DELTA 1 DEB now!
10-day predictions


NORAD ID: 7088
Int'l Code: 1973-086CG
Perigee: 1,130.4 km
Apogee: 1,539.8 km
Inclination: 102.4 °
Period: 112.2 minutes
Semi major axis: 7706 km
RCS: 0.0368 m2 (small)
Launch date: November 6, 1973
Source: United States (US)
Launch site: AIR FORCE WESTERN TEST RANGE (AFWTR)

Note: This is SATELLITE DEBRIS
Your satellite tracking list
Your tracking list is empty




NASA's NSSDC Master Catalog

Two Line Element Set (TLE):
1 07088U 73086CG  23155.34824390  .00000464  00000-0  18614-2 0  9992
2 07088 102.4216 309.5164 0265634 140.3798 287.6592 12.83361545310233
Source of the keplerian elements: AFSPC